FW5829 Weather Reports


time (UTC)temp
C
wind
direction
speed
KPH
gust
KPH
rain 1hr
cm
rain 24hr
cm
rain mn
cm
humidity
%
barometer
mb
20260507114506 9 28 1.6 4.8 0.00 1.37 0.43 91 1006.5
20260507113006 8 360 0.0 3.2 0.00 1.37 0.43 92 1006.6
20260507111504 8 12 0.0 1.6 0.00 1.37 0.43 92 1006.8
20260507110004 7 355 0.0 4.8 0.00 1.37 0.43 93 1006.7
20260507104502 7 210 0.0 1.6 0.00 1.37 0.43 93 1007.1
20260507103058 -17 0.0 0.0 0.00 1.37 0.43 1007.2
20260507101554 -17 0.0 0.0 0.00 1.37 0.43 1006.5
20260507100057 -17 0.0 0.0 0.00 1.37 0.43 1006.5
20260507094547 -17 0.0 0.0 0.00 1.37 0.43 1006.3
20260507093040 -17 0.0 0.0 0.00 1.37 0.43 1005.9
20260507091540 -17 0.0 0.0 0.00 1.37 0.43 1006.3
20260507090031 -17 0.0 0.0 0.00 1.37 0.43 1006.2
20260507084527 -17 0.0 0.0 0.00 1.37 0.43 1006.3
20260507083023 -17 333 1.6 8.0 0.00 1.37 0.43 93 1006.0
20260507081521 8 345 0.0 6.4 0.00 1.37 0.43 94 1006.0
20260507080018 9 181 0.0 4.8 0.00 1.37 0.43 94 1006.0
20260507074517 9 325 0.0 6.4 0.00 1.37 0.43 94 1005.9
20260507073015 9 30 0.0 6.4 0.00 1.37 0.43 94 1005.6
20260507071522 10 321 0.0 4.8 0.00 1.37 0.43 94 1005.2
20260507070012 10 163 0.0 1.6 0.00 1.37 0.43 94 1005.0
20260507064508 10 9 0.0 3.2 0.03 1.37 0.43 94 1004.7
20260507063008 10 116 0.0 6.4 0.03 1.37 0.43 94 1004.9
20260507061506 10 328 1.6 12.9 0.03 1.37 0.43 94 1004.8
20260507060004 10 359 1.6 6.4 0.03 1.35 0.41 94 1004.4
20260507054609 10 303 1.6 8.0 0.05 1.35 0.41 94 1004.7
20260507053001 10 44 0.0 4.8 0.20 1.35 0.41 94 1004.6
20260507051609 10 38 0.0 1.6 0.38 1.35 0.41 94 1004.9
20260507050059 10 359 1.6 4.8 0.38 1.32 0.38 94 1004.4
20260507044559 11 49 0.0 11.3 0.38 1.30 0.36 94 1004.6
20260507043057 11 194 4.8 8.0 0.25 1.17 0.23 95 1004.2
20260507041552 11 210 4.8 14.5 0.05 0.97 0.03 95 1003.9
20260507040048 11 180 4.8 11.3 0.03 0.94 0.00 95 1004.1
20260507034547 11 187 6.4 12.9 0.00 0.91 0.91 95 1004.0
20260507033045 10 188 6.4 12.9 0.00 0.91 0.91 95 1004.2
20260507031544 10 194 9.7 27.4 0.00 0.91 0.91 95 1004.3
20260507030041 10 199 8.0 19.3 0.00 0.91 0.91 95 1004.3
20260507024539 10 188 11.3 29.0 0.00 0.91 0.91 94 1004.5
20260507023042 10 188 9.7 24.1 0.00 0.91 0.91 95 1004.7
20260507021540 10 182 11.3 27.4 0.00 0.91 0.91 94 1004.8
20260507020036 10 215 16.1 29.0 0.03 0.91 0.91 94 1004.9
20260507014533 10 229 16.1 27.4 0.05 0.91 0.91 95 1005.1
20260507013031 10 192 14.5 29.0 0.08 0.91 0.91 94 1005.2
20260507011534 10 176 12.9 32.2 0.08 0.91 0.91 94 1005.5
20260507010038 10 209 9.7 27.4 0.05 0.89 0.89 94 1005.5
20260507004526 10 179 11.3 32.2 0.03 0.86 0.86 94 1005.6
20260507003024 10 186 16.1 32.2 0.00 0.84 0.84 94 1005.8
20260507001523 10 218 19.3 33.8 0.05 0.84 0.84 94 1005.8
20260507000022 10 176 17.7 32.2 0.05 0.84 0.84 94 1005.7
20260506234519 10 173 17.7 30.6 0.10 0.84 0.84 94 1006.0
20260506233016 10 203 17.7 38.6 0.20 0.84 0.84 94 1006.1
20260506231514 10 179 19.3 35.4 0.25 0.79 0.79 94 1006.3
20260506230022 10 193 20.9 37.0 0.30 0.79 0.79 94 1006.2
20260506224511 10 184 19.3 43.5 0.36 0.71 0.71 93 1006.4
20260506223007 10 202 19.3 32.2 0.33 0.61 0.61 93 1006.5
20260506221506 10 172 17.7 32.2 0.33 0.53 0.53 93 1006.8
20260506220006 10 165 17.7 37.0 0.30 0.48 0.48 93 1007.0
20260506214600 10 194 19.3 35.4 0.23 0.38 0.38 93 1006.9
20260506213110 10 180 14.5 30.6 0.15 0.28 0.28 93 1007.3
20260506211559 10 181 16.1 33.8 0.10 0.20 0.20 92 1007.4
20260506210104 11 181 16.1 33.8 0.13 0.18 0.18 92 1007.3
20260506204604 11 227 14.5 27.4 0.13 0.15 0.15 92 1007.3
20260506203151 11 207 14.5 29.0 0.13 0.13 0.13 92 1007.5
20260506201551 11 195 11.3 38.6 0.10 0.10 0.10 92 1007.7
20260506200049 11 198 16.1 32.2 0.05 0.05 0.05 92 1007.7
20260506194548 11 185 14.5 32.2 0.03 0.03 0.03 91 1007.4
20260506193046 11 196 17.7 29.0 0.00 0.00 0.00 91 1007.5
20260506191549 11 212 16.1 33.8 0.00 0.00 0.00 90 1007.4
20260506190044 11 216 16.1 37.0 0.00 0.00 0.00 90 1007.3
20260506184547 11 152 20.9 35.4 0.00 0.00 0.00 90 1007.6
20260506183040 11 203 17.7 35.4 0.00 0.00 0.00 90 1007.8
20260506181539 11 229 17.7 33.8 0.00 0.00 0.00 90 1008.0
20260506180039 11 207 20.9 32.2 0.00 0.00 0.00 90 1008.0
20260506174536 11 176 16.1 27.4 0.00 0.00 0.00 90 1008.2
20260506173031 11 199 17.7 27.4 0.00 0.00 0.00 90 1008.2
20260506171629 11 161 16.1 25.7 0.00 0.00 0.00 90 1008.4
20260506170028 11 188 19.3 30.6 0.00 0.00 0.00 89 1008.7
20260506164528 11 193 17.7 29.0 0.00 0.00 0.00 89 1009.1
20260506163034 11 212 19.3 37.0 0.00 0.00 0.00 89 1009.3
20260506161528 11 174 16.1 24.1 0.00 0.00 0.00 89 1009.5
20260506160030 11 223 17.7 38.6 0.00 0.00 0.00 89 1009.8
20260506154524 12 190 16.1 30.6 0.00 0.00 0.00 89 1010.1
20260506153023 12 210 17.7 27.4 0.00 0.00 0.00 89 1009.9
20260506151525 12 195 20.9 30.6 0.00 0.00 0.00 89 1009.8
20260506150022 11 181 22.5 40.2 0.00 0.00 0.00 90 1009.6
20260506144521 11 182 19.3 32.2 0.00 0.00 0.00 90 1009.5
20260506143021 11 184 16.1 30.6 0.00 0.00 0.00 89 1009.9
20260506141520 11 233 14.5 27.4 0.00 0.00 0.00 90 1010.3
20260506140026 11 167 16.1 25.7 0.00 0.00 0.00 90 1010.3
20260506134520 11 181 16.1 27.4 0.00 0.00 0.00 90 1010.3
20260506133026 11 179 11.3 22.5 0.00 0.00 0.00 90 1010.2
20260506131517 11 188 16.1 24.1 0.00 0.00 0.00 91 1009.9
20260506130018 11 193 16.1 24.1 0.00 0.00 0.00 91 1009.9
20260506124518 10 180 14.5 19.3 0.00 0.00 0.00 91 1010.0
20260506123012 10 180 11.3 24.1 0.00 0.00 0.00 90 1010.2
20260506121510 11 187 11.3 32.2 0.00 0.00 0.00 89 1010.2
20260506120009 11 191 11.3 20.9 0.00 0.00 0.00 90 1010.2